Grand Marais, MN

11:21 AM CST on November 22, 2019 (GMT -0600)
Grand Marais

Weather History for KGNA - September, 2019

Change the Weather History Date:

Saturday, September 28, 2019

  Actual Average (WUND) Record (WUND)
Temperature  
Mean Temperature 50 °F -  
Max Temperature 61 °F - - (-1)
Min Temperature 41 °F - - (-1)
Degree Days  
Heating Degree Days 14    
Moisture  
Dew Point 39 °F    
Average Humidity 70    
Maximum Humidity 86    
Minimum Humidity 41    
Precipitation  
Precipitation 0.00 in - - ()
Sea Level Pressure  
Sea Level Pressure 30.21 in    
Wind  
Wind Speed 3 mph (WNW)    
Max Wind Speed 12 mph    
Max Gust Speed 24 mph    
Averages and records for this station are not official NWS values.
T = Trace of Precipitation, MM = Missing Value Source: NWS Daily Summary

Daily Weather History Graph

Daily Weather History Graph

Search for Another Location

Airport or City:

Astronomy

Sep. 28, 2019 Rise Set
Actual Time 6:56 AM CDT 6:47 PM CDT
Civil Twilight 6:25 AM CDT 7:17 PM CDT
Nautical Twilight 5:49 AM CDT 7:53 PM CDT
Astronomical Twilight 5:12 AM CDT 8:30 PM CDT
Moon 6:26 AM CDT (9/28) 7:15 PM CDT (9/28)
Length of Visible Light 12h 52m
Length of Day
11h 51m
Waning Crescent, 0% of the Moon is Illuminated
Sep 28
Waning Crescent
Sep 28
New
Oct 5
First Quarter
Oct 13
Full
Oct 21
Last Quarter

Hourly Weather History & Observations

Time (CDT) Temp. Windchill Dew Point Humidity Pressure Visibility Wind Dir Wind Speed Gust Speed Precip Events Conditions
12:56 AM 42.1 °F 40.2 °F 37.9 °F 85% 29.97 in - NNE 3.5 mph - N/A   Unknown
1:56 AM 41.0 °F - 37.0 °F 86% 30.01 in - Calm Calm - N/A   Unknown
2:56 AM 44.1 °F 42.5 °F 37.9 °F 79% 30.04 in - WSW 3.5 mph - N/A   Unknown
3:56 AM 42.1 °F - 37.0 °F 82% 30.05 in - Calm Calm - N/A   Unknown
4:56 AM 42.1 °F - 37.0 °F 82% 30.07 in - Calm Calm - N/A   Unknown
5:56 AM 44.1 °F 40.8 °F 37.9 °F 79% 30.08 in - Variable 5.8 mph 17.3 mph N/A   Unknown
6:56 AM 44.1 °F 38.6 °F 37.9 °F 79% 30.10 in - NNW 10.4 mph 24.2 mph N/A   Unknown
7:56 AM 46.9 °F - 39.9 °F 77% 30.14 in - North - - N/A   Unknown
8:56 AM 48.0 °F - 39.9 °F 74% 30.18 in - North - - N/A   Unknown
9:56 AM 52.0 °F - 39.9 °F 63% 30.21 in - North - - N/A   Unknown
10:56 AM 54.0 °F - 37.9 °F 55% 30.23 in - North - - N/A   Unknown
11:56 AM 57.0 °F - 37.0 °F 47% 30.25 in - North - - N/A   Unknown
12:56 PM 57.0 °F - 36.0 °F 45% 30.26 in - Variable 3.5 mph - N/A   Unknown
1:56 PM 60.1 °F - 36.0 °F 41% 30.26 in - North - - N/A   Unknown
2:56 PM 57.0 °F - 36.0 °F 45% 30.26 in - Variable 5.8 mph - N/A   Unknown
3:56 PM 57.9 °F - 36.0 °F 44% 30.27 in - Variable 6.9 mph - N/A   Unknown
4:56 PM 52.0 °F - 44.1 °F 74% 30.29 in - SW 11.5 mph - N/A   Unknown
5:56 PM 52.0 °F - 45.0 °F 77% 30.32 in - WSW 10.4 mph - N/A   Unknown
6:56 PM 48.9 °F - 44.1 °F 83% 30.32 in - Calm Calm - N/A   Unknown
7:56 PM 48.0 °F - 39.0 °F 71% 30.32 in - Calm Calm - N/A   Unknown
8:56 PM 45.0 °F - 39.9 °F 82% 30.36 in - Calm Calm - N/A   Unknown
9:56 PM 46.0 °F - 39.9 °F 79% 30.36 in - Calm Calm - N/A   Unknown
10:56 PM 45.0 °F - 39.0 °F 80% 30.38 in - Calm Calm - N/A   Unknown
11:56 PM 45.0 °F 43.5 °F 39.9 °F 82% 30.38 in - North 3.5 mph - N/A   Unknown